LOCATION_NAME,SAMPLE COLLECTION TIME,DOSE EQUIVALENT RATE (nSv/h),GAMMA COUNT RATE R02 (CPM),GAMMA COUNT RATE R03 (CPM),GAMMA COUNT RATE R04 (CPM),GAMMA COUNT RATE R05 (CPM),GAMMA COUNT RATE R06 (CPM),GAMMA COUNT RATE R07 (CPM),GAMMA COUNT RATE R08 (CPM),GAMMA COUNT RATE R09 (CPM),STATUS
ID: IDAHO FALLS,01/01/2013 00:12:00,,3253.00,2013.00,585.00,320.00,183.00,223.00,125.00,50.00,APPROVED
ID: IDAHO FALLS,01/01/2013 01:12:00,,3199.00,1964.00,577.00,308.00,174.00,217.00,121.00,48.00,APPROVED
ID: IDAHO FALLS,01/01/2013 02:12:00,,3186.00,1955.00,576.00,304.00,176.00,212.00,119.00,48.00,APPROVED
ID: IDAHO FALLS,01/01/2013 03:13:00,,3150.00,1936.00,572.00,297.00,174.00,209.00,119.00,47.00,APPROVED
ID: IDAHO FALLS,01/01/2013 04:13:00,,3142.00,1911.00,567.00,301.00,173.00,209.00,117.00,47.00,APPROVED
ID: IDAHO FALLS,01/01/2013 05:13:00,,3146.00,1913.00,568.00,290.00,173.00,209.00,119.00,48.00,APPROVED
ID: IDAHO FALLS,01/01/2013 06:13:00,,3113.00,1896.00,562.00,290.00,170.00,208.00,115.00,49.00,APPROVED
ID: IDAHO FALLS,01/01/2013 07:13:00,,3138.00,1924.00,564.00,297.00,173.00,212.00,116.00,48.00,APPROVED
ID: IDAHO FALLS,01/01/2013 08:14:00,,3138.00,1931.00,565.00,301.00,173.00,208.00,119.00,49.00,APPROVED
ID: IDAHO FALLS,01/01/2013 09:14:00,,3117.00,1915.00,562.00,293.00,173.00,210.00,117.00,49.00,APPROVED
ID: IDAHO FALLS,01/01/2013 10:14:00,,3104.00,1883.00,554.00,288.00,172.00,204.00,116.00,48.00,APPROVED
ID: IDAHO FALLS,01/01/2013 11:14:00,,3067.00,1846.00,544.00,284.00,167.00,203.00,113.00,49.00,APPROVED
ID: IDAHO FALLS,01/01/2013 12:14:00,,3057.00,1832.00,539.00,282.00,165.00,197.00,115.00,47.00,APPROVED
ID: IDAHO FALLS,01/01/2013 13:15:00,,3085.00,1855.00,545.00,284.00,167.00,203.00,114.00,47.00,APPROVED
ID: IDAHO FALLS,01/01/2013 14:15:00,,3077.00,1856.00,537.00,281.00,170.00,198.00,115.00,48.00,APPROVED
ID: IDAHO FALLS,01/01/2013 15:15:00,,3314.00,2075.00,595.00,321.00,181.00,223.00,127.00,51.00,APPROVED
ID: IDAHO FALLS,01/01/2013 16:15:00,,3486.00,2342.00,686.00,389.00,209.00,274.00,147.00,54.00,APPROVED
ID: IDAHO FALLS,01/01/2013 17:15:00,,3442.00,2292.00,679.00,377.00,206.00,267.00,146.00,55.00,APPROVED
ID: IDAHO FALLS,01/01/2013 18:16:00,,3405.00,2210.00,649.00,361.00,199.00,253.00,138.00,54.00,APPROVED
ID: IDAHO FALLS,01/01/2013 19:16:00,,3356.00,2133.00,629.00,339.00,194.00,241.00,134.00,53.00,APPROVED
ID: IDAHO FALLS,01/01/2013 20:16:00,,3332.00,2095.00,619.00,330.00,187.00,236.00,128.00,52.00,APPROVED
ID: IDAHO FALLS,01/01/2013 21:16:00,,3247.00,2035.00,600.00,325.00,184.00,229.00,127.00,50.00,APPROVED
ID: IDAHO FALLS,01/01/2013 22:16:00,,3204.00,1979.00,584.00,313.00,176.00,219.00,123.00,51.00,APPROVED
ID: IDAHO FALLS,01/01/2013 23:17:00,,3164.00,1928.00,566.00,300.00,172.00,209.00,123.00,49.00,APPROVED
ID: IDAHO FALLS,01/02/2013 00:17:00,,3162.00,1894.00,552.00,290.00,172.00,202.00,116.00,49.00,APPROVED
ID: IDAHO FALLS,01/02/2013 01:17:00,,3125.00,1884.00,558.00,282.00,172.00,209.00,108.00,48.00,APPROVED
ID: IDAHO FALLS,01/02/2013 02:17:00,,3166.00,1946.00,598.00,281.00,169.00,233.00,93.00,48.00,APPROVED
ID: IDAHO FALLS,01/02/2013 03:17:00,,3182.00,1980.00,617.00,283.00,179.00,240.00,96.00,49.00,APPROVED
ID: IDAHO FALLS,01/02/2013 04:18:00,,3285.00,2121.00,674.00,309.00,195.00,263.00,108.00,52.00,APPROVED
ID: IDAHO FALLS,01/02/2013 05:18:00,,3373.00,2259.00,723.00,333.00,206.00,287.00,120.00,55.00,APPROVED
ID: IDAHO FALLS,01/02/2013 06:18:00,,3425.00,2310.00,740.00,340.00,211.00,294.00,124.00,56.00,APPROVED
ID: IDAHO FALLS,01/02/2013 07:18:00,,3359.00,2243.00,718.00,329.00,203.00,284.00,120.00,55.00,APPROVED
ID: IDAHO FALLS,01/02/2013 08:18:00,,3353.00,2184.00,695.00,325.00,196.00,275.00,118.00,55.00,APPROVED
ID: IDAHO FALLS,01/02/2013 09:19:00,,3302.00,2199.00,697.00,325.00,196.00,275.00,119.00,52.00,APPROVED
ID: IDAHO FALLS,01/02/2013 10:19:00,,3308.00,2192.00,701.00,328.00,196.00,277.00,120.00,56.00,APPROVED
ID: IDAHO FALLS,01/02/2013 11:19:00,,3313.00,2195.00,698.00,324.00,199.00,278.00,119.00,53.00,APPROVED
ID: IDAHO FALLS,01/02/2013 12:19:00,,3398.00,2254.00,719.00,329.00,202.00,286.00,118.00,52.00,APPROVED
ID: IDAHO FALLS,01/02/2013 13:19:00,,3474.00,2339.00,747.00,342.00,207.00,294.00,122.00,57.00,APPROVED
ID: IDAHO FALLS,01/02/2013 14:20:00,,3543.00,2433.00,784.00,364.00,220.00,315.00,132.00,56.00,APPROVED
ID: IDAHO FALLS,01/02/2013 15:20:00,,3581.00,2476.00,804.00,369.00,220.00,317.00,137.00,57.00,APPROVED
ID: IDAHO FALLS,01/02/2013 16:20:00,,3565.00,2460.00,800.00,371.00,221.00,315.00,139.00,57.00,APPROVED
ID: IDAHO FALLS,01/02/2013 17:20:00,,3602.00,2429.00,780.00,358.00,217.00,309.00,130.00,57.00,APPROVED
ID: IDAHO FALLS,01/02/2013 18:20:00,,3650.00,2436.00,758.00,375.00,218.00,303.00,137.00,58.00,APPROVED
ID: IDAHO FALLS,01/02/2013 19:21:00,,3604.00,2424.00,742.00,383.00,217.00,291.00,146.00,58.00,APPROVED
ID: IDAHO FALLS,01/02/2013 20:21:00,,3605.00,2358.00,742.00,353.00,211.00,295.00,125.00,55.00,APPROVED
ID: IDAHO FALLS,01/02/2013 21:21:00,,3606.00,2367.00,732.00,353.00,208.00,289.00,125.00,56.00,APPROVED
ID: IDAHO FALLS,01/02/2013 22:21:00,,3553.00,2353.00,703.00,373.00,207.00,281.00,142.00,57.00,APPROVED
ID: IDAHO FALLS,01/02/2013 23:21:00,,3569.00,2339.00,699.00,378.00,208.00,272.00,142.00,56.00,APPROVED
ID: IDAHO FALLS,01/03/2013 00:22:00,,3520.00,2326.00,691.00,376.00,205.00,271.00,143.00,55.00,APPROVED
ID: IDAHO FALLS,01/03/2013 01:22:00,,3487.00,2297.00,716.00,347.00,203.00,281.00,125.00,53.00,APPROVED
ID: IDAHO FALLS,01/03/2013 02:22:00,,3426.00,2277.00,729.00,333.00,204.00,289.00,121.00,55.00,APPROVED
ID: IDAHO FALLS,01/03/2013 03:22:00,,3444.00,2308.00,741.00,342.00,206.00,293.00,124.00,54.00,APPROVED
ID: IDAHO FALLS,01/03/2013 04:22:00,,3527.00,2429.00,780.00,361.00,216.00,309.00,132.00,57.00,APPROVED
ID: IDAHO FALLS,01/03/2013 05:23:00,,3491.00,2379.00,760.00,354.00,213.00,303.00,131.00,56.00,APPROVED
ID: IDAHO FALLS,01/03/2013 06:23:00,,3465.00,2329.00,751.00,346.00,208.00,296.00,125.00,56.00,APPROVED
ID: IDAHO FALLS,01/03/2013 07:23:00,,3442.00,2286.00,740.00,340.00,205.00,286.00,127.00,56.00,APPROVED
ID: IDAHO FALLS,01/03/2013 08:23:00,,3459.00,2301.00,732.00,339.00,205.00,288.00,126.00,56.00,APPROVED
ID: IDAHO FALLS,01/03/2013 09:23:00,,3466.00,2317.00,746.00,344.00,209.00,291.00,131.00,57.00,APPROVED
ID: IDAHO FALLS,01/03/2013 10:24:00,,3470.00,2358.00,747.00,349.00,213.00,295.00,129.00,56.00,APPROVED
ID: IDAHO FALLS,01/03/2013 11:24:00,,3442.00,2333.00,748.00,350.00,210.00,293.00,130.00,56.00,APPROVED
ID: IDAHO FALLS,01/03/2013 12:24:00,,3509.00,2377.00,762.00,357.00,208.00,304.00,134.00,55.00,APPROVED
ID: IDAHO FALLS,01/03/2013 13:24:00,,3541.00,2449.00,787.00,371.00,217.00,309.00,137.00,59.00,APPROVED
ID: IDAHO FALLS,01/03/2013 14:24:00,,3521.00,2425.00,786.00,363.00,217.00,310.00,137.00,57.00,APPROVED
ID: IDAHO FALLS,01/03/2013 15:25:00,,3525.00,2412.00,779.00,361.00,215.00,311.00,137.00,56.00,APPROVED
ID: IDAHO FALLS,01/03/2013 16:25:00,,3541.00,2404.00,773.00,358.00,215.00,306.00,135.00,57.00,APPROVED
ID: IDAHO FALLS,01/03/2013 17:08:00,,3591.00,2429.00,761.00,367.00,214.00,297.00,136.00,57.00,APPROVED
ID: IDAHO FALLS,01/03/2013 18:15:00,,3361.00,2019.00,597.00,281.00,171.00,222.00,101.00,47.00,APPROVED
ID: IDAHO FALLS,01/03/2013 19:15:00,,3473.00,2198.00,658.00,332.00,189.00,255.00,122.00,51.00,APPROVED
ID: IDAHO FALLS,01/03/2013 20:15:00,,3526.00,2250.00,660.00,348.00,198.00,258.00,129.00,52.00,APPROVED
ID: IDAHO FALLS,01/03/2013 21:15:00,,3525.00,2242.00,660.00,351.00,197.00,255.00,134.00,54.00,APPROVED
ID: IDAHO FALLS,01/03/2013 22:15:00,,3480.00,2223.00,655.00,347.00,196.00,247.00,132.00,51.00,APPROVED
ID: IDAHO FALLS,01/03/2013 23:16:00,,3446.00,2182.00,640.00,340.00,192.00,244.00,132.00,51.00,APPROVED
ID: IDAHO FALLS,01/04/2013 00:16:00,,3368.00,2137.00,631.00,328.00,189.00,240.00,125.00,51.00,APPROVED
ID: IDAHO FALLS,01/04/2013 01:16:00,,3320.00,2079.00,637.00,301.00,184.00,244.00,114.00,50.00,APPROVED
ID: IDAHO FALLS,01/04/2013 02:16:00,,3292.00,2034.00,629.00,289.00,182.00,251.00,101.00,49.00,APPROVED
ID: IDAHO FALLS,01/04/2013 03:16:00,,3343.00,2060.00,638.00,293.00,182.00,245.00,103.00,50.00,APPROVED
ID: IDAHO FALLS,01/04/2013 04:17:00,,3331.00,2075.00,649.00,299.00,185.00,251.00,103.00,50.00,APPROVED
ID: IDAHO FALLS,01/04/2013 05:17:00,,3322.00,2080.00,644.00,294.00,186.00,252.00,103.00,48.00,APPROVED
ID: IDAHO FALLS,01/04/2013 06:17:00,,3365.00,2101.00,653.00,302.00,185.00,255.00,105.00,49.00,APPROVED
ID: IDAHO FALLS,01/04/2013 07:17:00,,3391.00,2142.00,665.00,309.00,189.00,259.00,107.00,50.00,APPROVED
ID: IDAHO FALLS,01/04/2013 08:17:00,,3397.00,2150.00,676.00,311.00,190.00,266.00,109.00,52.00,APPROVED
ID: IDAHO FALLS,01/04/2013 09:18:00,,3382.00,2161.00,677.00,312.00,189.00,266.00,110.00,53.00,APPROVED
ID: IDAHO FALLS,01/04/2013 10:18:00,,3388.00,2172.00,679.00,309.00,194.00,266.00,109.00,52.00,APPROVED
ID: IDAHO FALLS,01/04/2013 11:18:00,,3388.00,2160.00,689.00,313.00,194.00,266.00,113.00,53.00,APPROVED
ID: IDAHO FALLS,01/04/2013 12:18:00,,3399.00,2203.00,692.00,316.00,195.00,271.00,112.00,51.00,APPROVED
ID: IDAHO FALLS,01/04/2013 13:18:00,,3397.00,2183.00,688.00,320.00,192.00,269.00,114.00,52.00,APPROVED
ID: IDAHO FALLS,01/04/2013 14:19:00,,3474.00,2248.00,705.00,324.00,197.00,278.00,118.00,53.00,APPROVED
ID: IDAHO FALLS,01/04/2013 15:19:00,,3471.00,2277.00,718.00,330.00,201.00,278.00,120.00,54.00,APPROVED
ID: IDAHO FALLS,01/04/2013 16:19:00,,3527.00,2312.00,727.00,337.00,207.00,286.00,121.00,53.00,APPROVED
ID: IDAHO FALLS,01/04/2013 17:19:00,,3604.00,2358.00,742.00,335.00,211.00,291.00,120.00,54.00,APPROVED
ID: IDAHO FALLS,01/04/2013 18:19:00,,3596.00,2353.00,731.00,350.00,207.00,284.00,130.00,53.00,APPROVED
ID: IDAHO FALLS,01/04/2013 19:20:00,,3526.00,2279.00,693.00,348.00,205.00,273.00,133.00,54.00,APPROVED
ID: IDAHO FALLS,01/04/2013 20:20:00,,3455.00,2199.00,645.00,337.00,196.00,248.00,129.00,52.00,APPROVED
ID: IDAHO FALLS,01/04/2013 21:20:00,,3408.00,2137.00,625.00,329.00,191.00,239.00,128.00,52.00,APPROVED
ID: IDAHO FALLS,01/04/2013 22:20:00,,3376.00,2124.00,615.00,330.00,188.00,231.00,129.00,52.00,APPROVED
ID: IDAHO FALLS,01/04/2013 23:20:00,,3429.00,2131.00,618.00,336.00,186.00,232.00,130.00,50.00,APPROVED
ID: IDAHO FALLS,01/05/2013 00:21:00,,3359.00,2097.00,609.00,330.00,186.00,226.00,128.00,51.00,APPROVED
ID: IDAHO FALLS,01/05/2013 01:21:00,,3351.00,2114.00,620.00,329.00,189.00,232.00,130.00,53.00,APPROVED
ID: IDAHO FALLS,01/05/2013 02:21:00,,3344.00,2093.00,641.00,312.00,186.00,248.00,112.00,51.00,APPROVED
ID: IDAHO FALLS,01/05/2013 03:21:00,,3332.00,2076.00,639.00,290.00,184.00,245.00,100.00,52.00,APPROVED
ID: IDAHO FALLS,01/05/2013 04:21:00,,3427.00,2175.00,680.00,308.00,190.00,263.00,108.00,51.00,APPROVED
ID: IDAHO FALLS,01/05/2013 05:22:00,,3475.00,2276.00,713.00,325.00,200.00,280.00,116.00,53.00,APPROVED
ID: IDAHO FALLS,01/05/2013 06:22:00,,3475.00,2298.00,721.00,328.00,205.00,285.00,122.00,54.00,APPROVED
ID: IDAHO FALLS,01/05/2013 07:22:00,,3520.00,2327.00,733.00,338.00,206.00,290.00,123.00,54.00,APPROVED
ID: IDAHO FALLS,01/05/2013 08:22:00,,3511.00,2341.00,741.00,340.00,205.00,293.00,123.00,55.00,APPROVED
ID: IDAHO FALLS,01/05/2013 09:22:00,,3644.00,2442.00,778.00,360.00,217.00,302.00,131.00,55.00,APPROVED
ID: IDAHO FALLS,01/05/2013 10:23:00,,3595.00,2433.00,782.00,356.00,214.00,305.00,127.00,57.00,APPROVED
ID: IDAHO FALLS,01/05/2013 11:23:00,,3578.00,2396.00,761.00,349.00,213.00,299.00,127.00,55.00,APPROVED
ID: IDAHO FALLS,01/05/2013 12:23:00,,3575.00,2406.00,767.00,348.00,214.00,301.00,129.00,54.00,APPROVED
ID: IDAHO FALLS,01/05/2013 13:23:00,,3589.00,2429.00,774.00,357.00,217.00,304.00,130.00,54.00,APPROVED
ID: IDAHO FALLS,01/05/2013 14:23:00,,3576.00,2394.00,761.00,349.00,211.00,300.00,128.00,54.00,APPROVED
ID: IDAHO FALLS,01/05/2013 15:24:00,,3570.00,2399.00,759.00,351.00,210.00,296.00,128.00,55.00,APPROVED
ID: IDAHO FALLS,01/05/2013 16:24:00,,3571.00,2358.00,745.00,344.00,212.00,290.00,128.00,54.00,APPROVED
ID: IDAHO FALLS,01/05/2013 17:24:00,,3597.00,2368.00,739.00,340.00,208.00,291.00,123.00,53.00,APPROVED
ID: IDAHO FALLS,01/05/2013 18:24:00,,3612.00,2331.00,724.00,332.00,205.00,284.00,113.00,54.00,APPROVED
ID: IDAHO FALLS,01/05/2013 19:24:00,,3613.00,2323.00,709.00,342.00,202.00,278.00,122.00,53.00,APPROVED
ID: IDAHO FALLS,01/05/2013 20:25:00,,3605.00,2312.00,692.00,355.00,199.00,265.00,134.00,54.00,APPROVED
ID: IDAHO FALLS,01/05/2013 21:25:00,,3520.00,2270.00,663.00,352.00,195.00,254.00,134.00,53.00,APPROVED
ID: IDAHO FALLS,01/05/2013 22:25:00,,3488.00,2231.00,654.00,346.00,196.00,249.00,137.00,53.00,APPROVED
ID: IDAHO FALLS,01/05/2013 23:25:00,,3528.00,2254.00,655.00,353.00,200.00,253.00,139.00,53.00,APPROVED
ID: IDAHO FALLS,01/06/2013 00:25:00,,3515.00,2272.00,654.00,360.00,199.00,251.00,137.00,55.00,APPROVED
ID: IDAHO FALLS,01/06/2013 01:26:00,,3460.00,2228.00,651.00,356.00,193.00,253.00,138.00,53.00,APPROVED
ID: IDAHO FALLS,01/06/2013 02:26:00,,3417.00,2191.00,666.00,324.00,193.00,255.00,120.00,53.00,APPROVED
ID: IDAHO FALLS,01/06/2013 03:26:00,,3434.00,2208.00,676.00,332.00,195.00,263.00,127.00,51.00,APPROVED
ID: IDAHO FALLS,01/06/2013 04:26:00,,3391.00,2179.00,667.00,329.00,193.00,253.00,121.00,54.00,APPROVED
ID: IDAHO FALLS,01/06/2013 05:26:00,,3442.00,2236.00,677.00,339.00,201.00,260.00,131.00,52.00,APPROVED
ID: IDAHO FALLS,01/06/2013 06:27:00,,3427.00,2251.00,672.00,347.00,200.00,259.00,136.00,56.00,APPROVED
ID: IDAHO FALLS,01/06/2013 07:27:00,,3471.00,2294.00,688.00,364.00,204.00,266.00,139.00,55.00,APPROVED
ID: IDAHO FALLS,01/06/2013 08:27:00,,3417.00,2225.00,685.00,333.00,197.00,268.00,124.00,53.00,APPROVED
ID: IDAHO FALLS,01/06/2013 09:27:00,,3434.00,2203.00,693.00,318.00,198.00,273.00,113.00,53.00,APPROVED
ID: IDAHO FALLS,01/06/2013 10:27:00,,3451.00,2220.00,694.00,315.00,197.00,266.00,112.00,52.00,APPROVED
ID: IDAHO FALLS,01/06/2013 11:28:00,,3467.00,2253.00,703.00,323.00,200.00,276.00,116.00,52.00,APPROVED
ID: IDAHO FALLS,01/06/2013 12:28:00,,3455.00,2226.00,704.00,321.00,197.00,271.00,114.00,51.00,APPROVED
ID: IDAHO FALLS,01/06/2013 13:28:00,,3485.00,2263.00,698.00,331.00,198.00,272.00,122.00,54.00,APPROVED
ID: IDAHO FALLS,01/06/2013 14:28:00,,3519.00,2303.00,694.00,356.00,203.00,268.00,135.00,55.00,APPROVED
ID: IDAHO FALLS,01/06/2013 15:28:00,,3558.00,2361.00,705.00,374.00,205.00,274.00,142.00,56.00,APPROVED
ID: IDAHO FALLS,01/06/2013 16:29:00,,3517.00,2357.00,699.00,374.00,208.00,269.00,145.00,57.00,APPROVED
ID: IDAHO FALLS,01/06/2013 17:29:00,,3551.00,2363.00,691.00,387.00,206.00,271.00,144.00,57.00,APPROVED
ID: IDAHO FALLS,01/06/2013 18:29:00,,3517.00,2321.00,681.00,372.00,202.00,266.00,141.00,54.00,APPROVED
ID: IDAHO FALLS,01/06/2013 19:29:00,,3546.00,2346.00,681.00,379.00,206.00,267.00,144.00,56.00,APPROVED
ID: IDAHO FALLS,01/06/2013 20:29:00,,3772.00,2498.00,712.00,400.00,214.00,277.00,152.00,57.00,APPROVED
ID: IDAHO FALLS,01/06/2013 21:30:00,,3863.00,2589.00,737.00,431.00,223.00,291.00,162.00,60.00,APPROVED
ID: IDAHO FALLS,01/06/2013 22:30:00,,3781.00,2517.00,719.00,425.00,219.00,285.00,157.00,59.00,APPROVED
ID: IDAHO FALLS,01/06/2013 23:30:00,,3589.00,2328.00,660.00,392.00,206.00,258.00,147.00,56.00,APPROVED
ID: IDAHO FALLS,01/07/2013 00:30:00,,3602.00,2298.00,650.00,375.00,204.00,251.00,143.00,56.00,APPROVED
ID: IDAHO FALLS,01/07/2013 01:30:00,,3633.00,2402.00,680.00,393.00,208.00,266.00,147.00,57.00,APPROVED
ID: IDAHO FALLS,01/07/2013 02:31:00,,3656.00,2374.00,682.00,388.00,208.00,262.00,147.00,56.00,APPROVED
ID: IDAHO FALLS,01/07/2013 03:31:00,,3500.00,2221.00,653.00,361.00,196.00,247.00,137.00,54.00,APPROVED
ID: IDAHO FALLS,01/07/2013 04:31:00,,3459.00,2198.00,640.00,352.00,194.00,243.00,134.00,53.00,APPROVED
ID: IDAHO FALLS,01/07/2013 05:31:00,,3459.00,2244.00,656.00,354.00,199.00,253.00,138.00,54.00,APPROVED
ID: IDAHO FALLS,01/07/2013 06:31:00,,3474.00,2276.00,675.00,364.00,205.00,260.00,139.00,53.00,APPROVED
ID: IDAHO FALLS,01/07/2013 07:32:00,,3474.00,2260.00,668.00,366.00,199.00,264.00,140.00,55.00,APPROVED
ID: IDAHO FALLS,01/07/2013 08:32:00,,3498.00,2307.00,690.00,372.00,209.00,266.00,140.00,56.00,APPROVED
ID: IDAHO FALLS,01/07/2013 09:32:00,,3526.00,2360.00,708.00,384.00,215.00,280.00,145.00,54.00,APPROVED
ID: IDAHO FALLS,01/07/2013 10:32:00,,3612.00,2455.00,768.00,374.00,219.00,302.00,142.00,57.00,APPROVED
ID: IDAHO FALLS,01/07/2013 11:32:00,,3708.00,2576.00,828.00,387.00,228.00,333.00,140.00,60.00,APPROVED
ID: IDAHO FALLS,01/07/2013 12:33:00,,3715.00,2571.00,843.00,388.00,232.00,333.00,142.00,58.00,APPROVED
ID: IDAHO FALLS,01/07/2013 13:33:00,,3631.00,2500.00,789.00,402.00,223.00,311.00,150.00,60.00,APPROVED
ID: IDAHO FALLS,01/07/2013 14:33:00,,3618.00,2473.00,756.00,404.00,222.00,299.00,152.00,58.00,APPROVED
ID: IDAHO FALLS,01/07/2013 15:33:00,,3683.00,2569.00,801.00,416.00,232.00,322.00,157.00,62.00,APPROVED
ID: IDAHO FALLS,01/07/2013 17:02:00,,3359.00,2038.00,605.00,289.00,178.00,226.00,105.00,48.00,APPROVED
ID: IDAHO FALLS,01/07/2013 18:03:00,,3548.00,2336.00,695.00,371.00,210.00,272.00,141.00,54.00,APPROVED
ID: IDAHO FALLS,01/07/2013 19:03:00,,3613.00,2404.00,717.00,399.00,213.00,284.00,148.00,57.00,APPROVED
ID: IDAHO FALLS,01/07/2013 20:03:00,,3617.00,2409.00,705.00,402.00,213.00,283.00,150.00,56.00,APPROVED
ID: IDAHO FALLS,01/07/2013 21:03:00,,3594.00,2374.00,691.00,397.00,210.00,272.00,149.00,56.00,APPROVED
ID: IDAHO FALLS,01/07/2013 22:03:00,,3534.00,2314.00,669.00,392.00,204.00,263.00,146.00,56.00,APPROVED
ID: IDAHO FALLS,01/07/2013 23:04:00,,3546.00,2323.00,669.00,392.00,207.00,257.00,150.00,53.00,APPROVED
ID: IDAHO FALLS,01/08/2013 00:04:00,,3517.00,2314.00,670.00,382.00,208.00,264.00,147.00,54.00,APPROVED
ID: IDAHO FALLS,01/08/2013 01:04:00,,3552.00,2320.00,669.00,386.00,208.00,266.00,146.00,55.00,APPROVED
ID: IDAHO FALLS,01/08/2013 02:04:00,,3608.00,2370.00,693.00,398.00,212.00,270.00,148.00,56.00,APPROVED
ID: IDAHO FALLS,01/08/2013 03:04:00,,3829.00,2602.00,751.00,444.00,225.00,301.00,165.00,60.00,APPROVED
ID: IDAHO FALLS,01/08/2013 04:05:00,,4267.00,3021.00,878.00,526.00,263.00,354.00,189.00,67.00,APPROVED
ID: IDAHO FALLS,01/08/2013 05:05:00,,4290.00,3035.00,887.00,545.00,267.00,364.00,193.00,66.00,APPROVED
ID: IDAHO FALLS,01/08/2013 06:05:00,,3975.00,2763.00,819.00,495.00,244.00,325.00,177.00,63.00,APPROVED
ID: IDAHO FALLS,01/08/2013 07:05:00,,3869.00,2697.00,787.00,478.00,242.00,321.00,173.00,61.00,APPROVED
ID: IDAHO FALLS,01/08/2013 08:05:00,,3901.00,2748.00,805.00,485.00,245.00,332.00,172.00,64.00,APPROVED
ID: IDAHO FALLS,01/08/2013 09:06:00,,3907.00,2806.00,833.00,492.00,252.00,340.00,181.00,64.00,APPROVED
ID: IDAHO FALLS,01/08/2013 10:06:00,,3946.00,2834.00,840.00,502.00,251.00,340.00,180.00,65.00,APPROVED
ID: IDAHO FALLS,01/08/2013 11:06:00,,4006.00,2879.00,858.00,505.00,255.00,357.00,186.00,64.00,APPROVED
ID: IDAHO FALLS,01/08/2013 12:06:00,,4025.00,2877.00,852.00,505.00,254.00,353.00,182.00,66.00,APPROVED
ID: IDAHO FALLS,01/08/2013 13:06:00,,3991.00,2850.00,847.00,506.00,253.00,347.00,182.00,65.00,APPROVED
ID: IDAHO FALLS,01/08/2013 14:07:00,,3980.00,2857.00,836.00,510.00,255.00,345.00,185.00,65.00,APPROVED
ID: IDAHO FALLS,01/08/2013 15:07:00,,4004.00,2906.00,846.00,518.00,257.00,353.00,192.00,65.00,APPROVED
ID: IDAHO FALLS,01/08/2013 16:07:00,,3897.00,2780.00,825.00,495.00,249.00,338.00,183.00,63.00,APPROVED
ID: IDAHO FALLS,01/08/2013 17:07:00,,3812.00,2657.00,793.00,465.00,239.00,326.00,171.00,63.00,APPROVED
ID: IDAHO FALLS,01/08/2013 18:07:00,,3896.00,2752.00,805.00,479.00,245.00,328.00,176.00,62.00,APPROVED
ID: IDAHO FALLS,01/08/2013 19:08:00,,3869.00,2711.00,796.00,476.00,238.00,324.00,173.00,63.00,APPROVED
ID: IDAHO FALLS,01/08/2013 20:08:00,,3735.00,2566.00,754.00,449.00,228.00,303.00,167.00,59.00,APPROVED
ID: IDAHO FALLS,01/08/2013 21:08:00,,3665.00,2513.00,729.00,439.00,223.00,295.00,161.00,59.00,APPROVED
ID: IDAHO FALLS,01/08/2013 22:08:00,,3692.00,2552.00,734.00,455.00,227.00,301.00,161.00,60.00,APPROVED
ID: IDAHO FALLS,01/08/2013 23:08:00,,3736.00,2596.00,750.00,465.00,230.00,310.00,170.00,60.00,APPROVED
ID: IDAHO FALLS,01/09/2013 00:09:00,,3549.00,2386.00,691.00,414.00,213.00,281.00,159.00,57.00,APPROVED
ID: IDAHO FALLS,01/09/2013 01:09:00,,3545.00,2349.00,677.00,408.00,207.00,271.00,151.00,58.00,APPROVED
ID: IDAHO FALLS,01/09/2013 02:09:00,,3425.00,2253.00,635.00,390.00,203.00,253.00,146.00,55.00,APPROVED
ID: IDAHO FALLS,01/09/2013 03:09:00,,3661.00,2471.00,705.00,428.00,217.00,283.00,156.00,60.00,APPROVED
ID: IDAHO FALLS,01/09/2013 04:09:00,,3614.00,2408.00,698.00,416.00,214.00,277.00,156.00,60.00,APPROVED
ID: IDAHO FALLS,01/09/2013 05:10:00,,3581.00,2364.00,680.00,405.00,210.00,268.00,151.00,58.00,APPROVED
ID: IDAHO FALLS,01/09/2013 06:10:00,,3598.00,2402.00,687.00,408.00,210.00,274.00,152.00,57.00,APPROVED
ID: IDAHO FALLS,01/09/2013 07:10:00,,3473.00,2282.00,659.00,385.00,206.00,260.00,146.00,56.00,APPROVED
ID: IDAHO FALLS,01/09/2013 08:10:00,,3406.00,2255.00,647.00,383.00,201.00,253.00,144.00,56.00,APPROVED
ID: IDAHO FALLS,01/09/2013 09:10:00,,3376.00,2225.00,631.00,385.00,200.00,252.00,145.00,57.00,APPROVED
ID: IDAHO FALLS,01/09/2013 10:11:00,,3355.00,2211.00,638.00,382.00,197.00,256.00,143.00,56.00,APPROVED
ID: IDAHO FALLS,01/09/2013 11:11:00,,3368.00,2240.00,638.00,386.00,202.00,256.00,146.00,56.00,APPROVED
ID: IDAHO FALLS,01/09/2013 12:11:00,,3502.00,2367.00,669.00,414.00,210.00,273.00,154.00,58.00,APPROVED
ID: IDAHO FALLS,01/09/2013 13:11:00,,3548.00,2459.00,698.00,438.00,221.00,283.00,160.00,59.00,APPROVED
ID: IDAHO FALLS,01/09/2013 14:11:00,,3541.00,2483.00,721.00,453.00,228.00,291.00,162.00,60.00,APPROVED
ID: IDAHO FALLS,01/09/2013 15:12:00,,3528.00,2465.00,709.00,453.00,225.00,291.00,166.00,61.00,APPROVED
ID: IDAHO FALLS,01/09/2013 16:12:00,,3525.00,2480.00,712.00,448.00,225.00,293.00,163.00,61.00,APPROVED
ID: IDAHO FALLS,01/09/2013 17:12:00,,3514.00,2473.00,706.00,452.00,224.00,291.00,161.00,61.00,APPROVED
ID: IDAHO FALLS,01/09/2013 18:12:00,,3464.00,2408.00,692.00,427.00,215.00,285.00,156.00,61.00,APPROVED
ID: IDAHO FALLS,01/09/2013 19:12:00,,3434.00,2322.00,662.00,418.00,209.00,266.00,149.00,58.00,APPROVED
ID: IDAHO FALLS,01/09/2013 20:13:00,,3513.00,2332.00,705.00,367.00,208.00,277.00,133.00,57.00,APPROVED
ID: IDAHO FALLS,01/09/2013 21:13:00,,3493.00,2284.00,734.00,322.00,202.00,287.00,112.00,54.00,APPROVED
ID: IDAHO FALLS,01/09/2013 22:13:00,,3501.00,2295.00,726.00,327.00,203.00,284.00,116.00,54.00,APPROVED
ID: IDAHO FALLS,01/09/2013 23:13:00,,3530.00,2328.00,727.00,338.00,204.00,289.00,116.00,56.00,APPROVED
ID: IDAHO FALLS,01/10/2013 00:13:00,,3552.00,2430.00,699.00,418.00,218.00,278.00,154.00,59.00,APPROVED
ID: IDAHO FALLS,01/10/2013 01:14:00,,3527.00,2466.00,704.00,432.00,217.00,285.00,157.00,59.00,APPROVED
ID: IDAHO FALLS,01/10/2013 02:14:00,,3603.00,2481.00,788.00,373.00,214.00,312.00,135.00,57.00,APPROVED
ID: IDAHO FALLS,01/10/2013 03:14:00,,3502.00,2426.00,720.00,414.00,219.00,291.00,154.00,59.00,APPROVED
ID: IDAHO FALLS,01/10/2013 04:14:00,,3385.00,2288.00,663.00,397.00,207.00,266.00,149.00,57.00,APPROVED
ID: IDAHO FALLS,01/10/2013 05:14:00,,3299.00,2145.00,620.00,364.00,192.00,243.00,140.00,55.00,APPROVED
ID: IDAHO FALLS,01/10/2013 06:15:00,,3343.00,2150.00,612.00,358.00,192.00,238.00,140.00,55.00,APPROVED
ID: IDAHO FALLS,01/10/2013 07:15:00,,3431.00,2262.00,639.00,378.00,199.00,250.00,144.00,55.00,APPROVED
ID: IDAHO FALLS,01/10/2013 08:15:00,,3566.00,2426.00,689.00,420.00,212.00,277.00,155.00,59.00,APPROVED
ID: IDAHO FALLS,01/10/2013 09:15:00,,3472.00,2372.00,679.00,419.00,214.00,271.00,155.00,59.00,APPROVED
ID: IDAHO FALLS,01/10/2013 10:15:00,,3363.00,2189.00,628.00,378.00,199.00,247.00,140.00,56.00,APPROVED
ID: IDAHO FALLS,01/10/2013 11:16:00,,3848.00,2562.00,716.00,434.00,220.00,275.00,156.00,62.00,APPROVED
ID: IDAHO FALLS,01/10/2013 12:16:00,,3810.00,2524.00,717.00,418.00,216.00,271.00,156.00,60.00,APPROVED
ID: IDAHO FALLS,01/10/2013 13:16:00,,3571.00,2319.00,661.00,381.00,200.00,250.00,143.00,55.00,APPROVED
ID: IDAHO FALLS,01/10/2013 14:16:00,,3467.00,2204.00,630.00,363.00,195.00,239.00,138.00,53.00,APPROVED